| time (UTC) | temp F | wind direction | speed MPH | gust MPH | rain 1hr in | rain 24hr in | rain mn in | humidity % | barometer mb |
| 20260508174535 | 54 | 171 | 1.0 | 4.0 | 0.00 | 0.00 | 0.00 | 64 | 1021.2 |
| 20260508173110 | 54 | 150 | 1.0 | 4.0 | 0.00 | 0.00 | 0.00 | 64 | 1020.8 |
| 20260508171536 | 53 | 147 | 3.0 | 6.0 | 0.00 | 0.00 | 0.00 | 64 | 1020.7 |
| 20260508163035 | 54 | 134 | 4.0 | 9.0 | 0.00 | 0.00 | 0.00 | 61 | 1020.6 |
| 20260508161532 | 56 | 72 | 5.0 | 14.0 | 0.00 | 0.00 | 0.00 | 56 | 1020.5 |
| 20260508160032 | 58 | 230 | 7.0 | 15.0 | 0.00 | 0.00 | 0.00 | 50 | 1020.3 |
| 20260508154607 | 58 | 226 | 3.0 | 13.0 | 0.00 | 0.00 | 0.00 | 55 | 1020.4 |
| 20260508153036 | 57 | 243 | 7.0 | 16.0 | 0.00 | 0.00 | 0.00 | 58 | 1020.3 |
| 20260508151537 | 57 | 246 | 8.0 | 17.0 | 0.00 | 0.00 | 0.00 | 61 | 1020.1 |
| 20260508150035 | 55 | 175 | 3.0 | 7.0 | 0.00 | 0.00 | 0.00 | 67 | 1020.0 |
| 20260508144531 | 52 | 173 | 3.0 | 7.0 | 0.00 | 0.00 | 0.00 | 72 | 1019.8 |
| 20260508143153 | 50 | 177 | 3.0 | 5.0 | 0.00 | 0.00 | 0.00 | 75 | 1019.6 |
| 20260508141534 | 48 | 189 | 2.0 | 5.0 | 0.00 | 0.00 | 0.00 | 76 | 1019.4 |
| 20260508140037 | 48 | 221 | 0.0 | 5.0 | 0.00 | 0.00 | 0.00 | 78 | 1019.3 |
| 20260508133035 | 46 | 176 | 2.0 | 4.0 | 0.00 | 0.00 | 0.00 | 79 | 1019.0 |
| 20260508131535 | 43 | 135 | 3.0 | 7.0 | 0.00 | 0.00 | 0.00 | 82 | 1018.7 |
| 20260508130037 | 42 | 152 | 1.0 | 5.0 | 0.00 | 0.00 | 0.00 | 81 | 1018.7 |
| 20260508124610 | 42 | 149 | 2.0 | 5.0 | 0.00 | 0.00 | 0.00 | 80 | 1018.7 |
| 20260508123033 | 42 | 158 | 3.0 | 6.0 | 0.00 | 0.00 | 0.00 | 80 | 1018.7 |
| 20260508121609 | 42 | 163 | 3.0 | 6.0 | 0.00 | 0.00 | 0.00 | 80 | 1018.6 |
| 20260508120036 | 42 | 160 | 3.0 | 6.0 | 0.00 | 0.00 | 0.00 | 80 | 1018.6 |
| 20260508114536 | 41 | 167 | 4.0 | 6.0 | 0.00 | 0.00 | 0.00 | 80 | 1018.5 |
| 20260508113036 | 41 | 146 | 3.0 | 5.0 | 0.00 | 0.00 | 0.00 | 82 | 1018.2 |
| 20260508110107 | 41 | 163 | 2.0 | 5.0 | 0.00 | 0.00 | 0.00 | 83 | 1018.2 |
| 20260508104534 | 40 | 156 | 3.0 | 6.0 | 0.00 | 0.00 | 0.00 | 85 | 1018.1 |
| 20260508103041 | 39 | 168 | 2.0 | 5.0 | 0.00 | 0.00 | 0.00 | 86 | 1018.1 |
| 20260508103036 | 38 | 161 | 1.0 | 4.0 | 0.00 | 0.00 | 0.00 | 86 | 1018.1 |
| 20260508100154 | 38 | 171 | 3.0 | 5.0 | 0.00 | 0.00 | 0.00 | 85 | 1018.1 |
| 20260508094533 | 37 | 159 | 3.0 | 6.0 | 0.00 | 0.00 | 0.00 | 83 | 1018.1 |
| 20260508091535 | 38 | 172 | 1.0 | 3.0 | 0.00 | 0.00 | 0.00 | 81 | 1018.1 |
| 20260508090036 | 39 | 193 | 0.0 | 4.0 | 0.00 | 0.00 | 0.00 | 81 | 1018.1 |
| 20260508084534 | 39 | 166 | 2.0 | 5.0 | 0.00 | 0.00 | 0.00 | 80 | 1018.1 |
| 20260508081535 | 40 | 162 | 2.0 | 4.0 | 0.00 | 0.00 | 0.00 | 75 | 1018.2 |
| 20260508080030 | 41 | 165 | 2.0 | 3.0 | 0.00 | 0.00 | 0.00 | 72 | 1018.2 |
| 20260508074537 | 43 | 110 | 2.0 | 4.0 | 0.00 | 0.00 | 0.00 | 69 | 1018.3 |
| 20260508073038 | 43 | 145 | 3.0 | 5.0 | 0.00 | 0.00 | 0.00 | 69 | 1018.3 |
| 20260508071536 | 42 | 156 | 4.0 | 5.0 | 0.00 | 0.00 | 0.00 | 70 | 1018.3 |
| 20260508070035 | 42 | 169 | 2.0 | 4.0 | 0.00 | 0.00 | 0.00 | 68 | 1018.4 |
| 20260508063036 | 44 | 154 | 2.0 | 5.0 | 0.00 | 0.00 | 0.00 | 65 | 1018.5 |
| 20260508060035 | 48 | 158 | 1.0 | 4.0 | 0.00 | 0.00 | 0.00 | 55 | 1018.8 |
| 20260508054534 | 51 | 125 | 0.0 | 2.0 | 0.00 | 0.00 | 0.00 | 49 | 1019.0 |
| 20260508053031 | 53 | 179 | 1.0 | 4.0 | 0.00 | 0.00 | 0.00 | 45 | 1018.9 |
| 20260508051535 | 59 | 244 | 2.0 | 9.0 | 0.00 | 0.00 | 0.00 | 35 | 1018.9 |
| 20260508050034 | 58 | 324 | 6.0 | 14.0 | 0.00 | 0.00 | 0.00 | 35 | 1018.9 |
| 20260508044531 | 58 | 334 | 5.0 | 11.0 | 0.00 | 0.00 | 0.00 | 33 | 1018.9 |
| 20260508043030 | 58 | 334 | 6.0 | 10.0 | 0.00 | 0.00 | 0.00 | 31 | 1018.7 |
| 20260508041532 | 59 | 333 | 5.0 | 10.0 | 0.00 | 0.00 | 0.00 | 30 | 1018.6 |
| 20260508040106 | 60 | 328 | 5.0 | 11.0 | 0.00 | 0.00 | 0.00 | 30 | 1018.4 |
| 20260508034537 | 60 | 314 | 5.0 | 10.0 | 0.00 | 0.00 | 0.00 | 32 | 1018.2 |
| 20260508030037 | 62 | 349 | 6.0 | 12.0 | 0.00 | 0.00 | 0.00 | 36 | 1018.0 |
| 20260508024535 | 63 | 304 | 4.0 | 10.0 | 0.00 | 0.00 | 0.00 | 35 | 1018.0 |
| 20260508023031 | 64 | 318 | 6.0 | 14.0 | 0.00 | 0.00 | 0.00 | 35 | 1018.0 |
| 20260508020143 | 66 | 299 | 6.0 | 12.0 | 0.00 | 0.00 | 0.00 | 36 | 1017.8 |
| 20260508014546 | 67 | 343 | 6.0 | 15.0 | 0.00 | 0.00 | 0.00 | 33 | 1017.8 |
| 20260508013036 | 68 | 329 | 6.0 | 19.0 | 0.00 | 0.00 | 0.00 | 30 | 1018.0 |
| 20260508010032 | 69 | 313 | 5.0 | 14.0 | 0.00 | 0.00 | 0.00 | 29 | 1018.1 |
| 20260508004534 | 69 | 331 | 6.0 | 16.0 | 0.00 | 0.00 | 0.00 | 29 | 1017.9 |
| 20260508003035 | 70 | 326 | 7.0 | 14.0 | 0.00 | 0.00 | 0.00 | 29 | 1017.9 |
| 20260508001533 | 70 | 316 | 7.0 | 17.0 | 0.00 | 0.00 | 0.00 | 27 | 1017.8 |
| 20260508000028 | 71 | 324 | 8.0 | 18.0 | 0.00 | 0.00 | 0.00 | 25 | 1017.7 |
| 20260507234530 | 72 | 301 | 5.0 | 13.0 | 0.00 | 0.00 | 0.00 | 23 | 1017.8 |
| 20260507233043 | 72 | 299 | 6.0 | 16.0 | 0.00 | 0.00 | 0.00 | 23 | 1017.8 |
| 20260507231534 | 72 | 277 | 6.0 | 17.0 | 0.00 | 0.00 | 0.00 | 24 | 1017.9 |
| 20260507224535 | 71 | 315 | 7.0 | 16.0 | 0.00 | 0.00 | 0.00 | 24 | 1018.1 |
| 20260507223034 | 71 | 315 | 8.0 | 17.0 | 0.00 | 0.00 | 0.00 | 25 | 1018.2 |
| 20260507221536 | 71 | 329 | 8.0 | 13.0 | 0.00 | 0.00 | 0.00 | 25 | 1018.6 |
| 20260507214535 | 72 | 283 | 5.0 | 15.0 | 0.00 | 0.00 | 0.00 | 27 | 1018.8 |
| 20260507213035 | 71 | 301 | 7.0 | 18.0 | 0.00 | 0.00 | 0.00 | 27 | 1018.8 |
| 20260507211609 | 71 | 306 | 7.0 | 17.0 | 0.00 | 0.00 | 0.00 | 27 | 1018.7 |
| 20260507204628 | 71 | 308 | 4.0 | 23.0 | 0.00 | 0.00 | 0.00 | 29 | 1018.9 |
| 20260507203036 | 72 | 291 | 6.0 | 14.0 | 0.00 | 0.00 | 0.00 | 31 | 1019.1 |
| 20260507201538 | 71 | 291 | 4.0 | 19.0 | 0.00 | 0.00 | 0.00 | 33 | 1019.3 |
| 20260507200153 | 70 | 319 | 6.0 | 16.0 | 0.00 | 0.00 | 0.00 | 35 | 1019.4 |
| 20260507191534 | 70 | 269 | 5.0 | 14.0 | 0.00 | 0.00 | 0.00 | 33 | 1019.7 |
| 20260507183151 | 67 | 311 | 6.0 | 14.0 | 0.00 | 0.00 | 0.00 | 32 | 1020.0 |
| 20260507181536 | 67 | 301 | 5.0 | 16.0 | 0.00 | 0.00 | 0.00 | 31 | 1020.2 |
| 20260507180034 | 68 | 293 | 5.0 | 14.0 | 0.00 | 0.00 | 0.00 | 33 | 1020.3 |